358P/PanSTARRS (2012)

Japanese version
Home page
Updated on October 21, 2017

---------------------------------------------------------------------

* Profile

Designation 358P/2012 T1
Discovery Date October 6, 2012
Magnitude 20.7 mag
Discoverer Pan-STARRS 1 telescope (Haleakala)

* Pictures

* Orbital Elements

Epoch 2012 Sept. 30.0 TT = JDT 2456200.5
T 2012 Sept. 10.93973 TT                                MPCW
q   2.4107712            (2000.0)            P               Q
n   0.17600941     Peri.  300.59514     +0.88000833     -0.43473243
a   3.1533980      Node    85.77432     +0.47426471     +0.78254387
e   0.2355005      Incl.   11.05870     +0.02565776     +0.44568240
P   5.60
From 173 observations 2012 Oct. 6-2017 Aug. 17, mean residual 0".4.

* Magnitudes Graph

        m1 = 15.0 + 5 log d + 10.0 log r

---------------------------------------------------------------------

The orbital elements are published on M.P.E.C. 2017-Q115.
The magnitudes graphs are made with Comet for Windows.

---------------------------------------------------------------------

Copyright(C) Seiichi Yoshida (comet@aerith.net). All rights reserved.